WNISAT-1

Last updated on Sat Aug 15 2026 00:03:44 GMT+0000 (Coordinated Universal Time)

1 39423U 13066H 26226.40362410 .00000253 00000+0 54517-4 0 9990 2 39423 97.7281 11.4516 0163861 48.9107 312.6114 14.58167303675216
UTC large
Height (km)
Speed (km/s)
/
Latitude / Longitude
Inclination (degrees)
Orbital Period (minutes)
Azimuth
Elevation
Range (km)
Doppler Factor

Next 0 passes for location: London (51.5072 / 0.1276)

No passes found over London.
WNISAT-1